Location: *
(50.5492°N, 7.7469°E)
Time: 10:40:16
(UTC+00:00)

STARLINK-58 - Pass Details

Date: 21 October 2019
Orbit: 548 x 551 km, 53.0° (Epoch: 12 November)

Event Time Altitude Azimuth Distance (km) Brightness Sun altitude
Rises 17:15:00 0° 268° (W) 2,716 9.6 -8.5°
Reaches altitude 10° 17:17:15 10° 272° (W) 1,823 7.9 -8.9°
Maximum altitude 17:21:22 63° 354° (N) 619 3.9 -9.5°
Enters shadow 17:24:55 14° 74° (ENE) 1,605 5.3 -10.1°
